KLM78KF EHAM-EDDM

Flight info

Callsign KLM78KF
Flight time 1h 6m
Altitude 33000
Route EDUPO Z739 MISGO DCT DOJOH DCT DODEN DCT TABUM DCT BOMBI T104 HAREM/N0419F270 T104 ROKIL ROKIL1B
Aircraft B738/M-SDE2E3FGHIRWXY/LB1

Departure

Time 2026-05-07 16:17
Airport Amsterdam Airport Schiphol (EHAM)

Arrival

Time 2026-05-07 17:24
Airport Munich Airport (EDDM)
Time Latitude Longitude Altitude Speed Heading
2026-05-07 15:38 52.30794 4.77102 0 ft 0 kts 183°
2026-05-07 16:03 52.30799 4.77103 0 ft 2 kts 183°
2026-05-07 16:03 52.30814 4.77104 0 ft 2 kts 183°
2026-05-07 16:03 52.30829 4.77105 0 ft 2 kts 184°
2026-05-07 16:04 52.30840 4.77106 0 ft 0 kts 183°
2026-05-07 16:04 52.30846 4.77106 0 ft 0 kts 137°
2026-05-07 16:04 52.30849 4.77100 0 ft 0 kts 94°
2026-05-07 16:04 52.30849 4.77089 0 ft 0 kts 93°
2026-05-07 16:05 52.30849 4.77088 0 ft 0 kts 93°
2026-05-07 16:05 52.30849 4.77089 0 ft 0 kts 93°
2026-05-07 16:09 52.30847 4.77116 0 ft 10 kts 98°
2026-05-07 16:09 52.30839 4.77331 0 ft 21 kts 92°
2026-05-07 16:09 52.30837 4.77557 0 ft 18 kts 70°
2026-05-07 16:10 52.30946 4.77615 0 ft 18 kts
2026-05-07 16:10 52.31089 4.77629 0 ft 20 kts
2026-05-07 16:10 52.31278 4.77646 0 ft 33 kts
2026-05-07 16:10 52.31487 4.77595 0 ft 30 kts 317°
2026-05-07 16:11 52.31577 4.77316 0 ft 27 kts 267°
2026-05-07 16:11 52.31566 4.77013 0 ft 25 kts 267°
2026-05-07 16:11 52.31557 4.76730 0 ft 24 kts 265°
2026-05-07 16:11 52.31546 4.76456 0 ft 26 kts 267°
2026-05-07 16:12 52.31533 4.76098 0 ft 36 kts 267°
2026-05-07 16:12 52.31519 4.75660 0 ft 27 kts 267°
2026-05-07 16:12 52.31516 4.75578 0 ft 0 kts 267°
2026-05-07 16:13 52.31516 4.75575 0 ft 1 kts 267°
2026-05-07 16:13 52.31512 4.75462 0 ft 19 kts 267°
2026-05-07 16:13 52.31502 4.75159 0 ft 34 kts 267°
2026-05-07 16:13 52.31490 4.74784 0 ft 29 kts 268°
2026-05-07 16:14 52.31567 4.74657 0 ft 8 kts 357°
2026-05-07 16:14 52.31570 4.74657 0 ft 0 kts 357°
2026-05-07 16:14 52.31571 4.74657 0 ft 1 kts 357°
2026-05-07 16:15 52.31636 4.74681 0 ft 16 kts 31°
2026-05-07 16:15 52.31668 4.74777 0 ft 0 kts 86°
2026-05-07 16:16 52.31669 4.74802 0 ft 15 kts 86°
2026-05-07 16:16 52.31691 4.75456 0 ft 97 kts 87°
2026-05-07 16:17 52.31742 4.76936 1 ft 163 kts 85°
2026-05-07 16:17 52.31802 4.78906 590 ft 175 kts 87°
2026-05-07 16:17 52.31853 4.80770 1630 ft 166 kts 85°
2026-05-07 16:17 52.31927 4.82720 2136 ft 180 kts 84°
2026-05-07 16:18 52.32015 4.84811 2621 ft 195 kts 85°
2026-05-07 16:18 52.31998 4.87086 3081 ft 215 kts 100°
2026-05-07 16:18 52.31477 4.89487 3670 ft 230 kts 114°
2026-05-07 16:18 52.30756 4.91914 4233 ft 246 kts 115°
2026-05-07 16:19 52.30018 4.94513 4818 ft 261 kts 114°
2026-05-07 16:19 52.29346 4.97272 5634 ft 265 kts 108°
2026-05-07 16:19 52.28817 5.00110 6496 ft 268 kts 106°
2026-05-07 16:19 52.28329 5.03064 7280 ft 273 kts 105°
2026-05-07 16:20 52.27836 5.06051 8088 ft 278 kts 105°
2026-05-07 16:20 52.27313 5.09135 8849 ft 283 kts 105°
2026-05-07 16:20 52.26776 5.12232 9610 ft 288 kts 106°
2026-05-07 16:20 52.26226 5.15372 10345 ft 292 kts 106°
2026-05-07 16:21 52.25650 5.18646 10805 ft 308 kts 106°
2026-05-07 16:21 52.25050 5.22056 11241 ft 323 kts 106°
2026-05-07 16:21 52.24349 5.25536 11865 ft 329 kts 112°
2026-05-07 16:21 52.23278 5.28857 12581 ft 333 kts 122°
2026-05-07 16:22 52.21960 5.31956 13317 ft 336 kts 126°
2026-05-07 16:22 52.20554 5.34999 14039 ft 339 kts 127°
2026-05-07 16:22 52.19123 5.38086 14717 ft 344 kts 127°
2026-05-07 16:22 52.17695 5.41233 15390 ft 348 kts 126°
2026-05-07 16:23 52.16274 5.44426 16058 ft 351 kts 126°
2026-05-07 16:23 52.14851 5.47662 16720 ft 354 kts 126°
2026-05-07 16:23 52.13427 5.50916 17358 ft 358 kts 126°
2026-05-07 16:23 52.11971 5.54248 17961 ft 362 kts 126°
2026-05-07 16:24 52.10527 5.57551 18555 ft 366 kts 126°
2026-05-07 16:24 52.09032 5.60966 19168 ft 369 kts 126°
2026-05-07 16:24 52.07558 5.64326 19749 ft 372 kts 126°
2026-05-07 16:24 52.06051 5.67730 20344 ft 375 kts 128°
2026-05-07 16:25 52.04424 5.71074 20913 ft 378 kts 131°
2026-05-07 16:25 52.02701 5.74332 21474 ft 381 kts 133°
2026-05-07 16:25 52.00952 5.77533 22016 ft 384 kts 133°
2026-05-07 16:25 51.99153 5.80800 22605 ft 386 kts 133°
2026-05-07 16:26 51.97380 5.84029 23151 ft 389 kts 133°
2026-05-07 16:26 51.95579 5.87332 23655 ft 392 kts 133°
2026-05-07 16:26 51.93796 5.90623 24218 ft 393 kts 133°
2026-05-07 16:26 51.91981 5.93984 24669 ft 398 kts 133°
2026-05-07 16:27 51.90167 5.97350 25167 ft 400 kts 133°
2026-05-07 16:27 51.88335 6.00749 25667 ft 402 kts 132°
2026-05-07 16:27 51.86483 6.04184 26053 ft 407 kts 132°
2026-05-07 16:27 51.84615 6.07644 26526 ft 409 kts 132°
2026-05-07 16:28 51.82727 6.11123 26935 ft 412 kts 133°
2026-05-07 16:28 51.80850 6.14570 27342 ft 415 kts 132°
2026-05-07 16:28 51.79396 6.17234 27674 ft 417 kts 133°
2026-05-07 16:28 51.77371 6.20939 28083 ft 420 kts 133°
2026-05-07 16:29 51.75448 6.24454 28482 ft 422 kts 133°
2026-05-07 16:29 51.73494 6.28018 28879 ft 424 kts 133°
2026-05-07 16:29 51.71527 6.31600 29306 ft 426 kts 133°
2026-05-07 16:29 51.69540 6.35213 29609 ft 430 kts 133°
2026-05-07 16:30 51.67549 6.38827 30027 ft 431 kts 133°
2026-05-07 16:30 51.65567 6.42423 30350 ft 433 kts 133°
2026-05-07 16:30 51.63565 6.46049 30708 ft 436 kts 132°
2026-05-07 16:30 51.61557 6.49680 31027 ft 438 kts 132°
2026-05-07 16:31 51.59501 6.53396 31305 ft 441 kts 132°
2026-05-07 16:31 51.57469 6.57064 31615 ft 442 kts 132°
2026-05-07 16:31 51.55444 6.60713 31892 ft 445 kts 132°
2026-05-07 16:31 51.53385 6.64419 32144 ft 448 kts 132°
2026-05-07 16:32 51.51302 6.68164 32459 ft 448 kts 133°
2026-05-07 16:32 51.49218 6.71905 32711 ft 451 kts 133°
2026-05-07 16:32 51.47108 6.75686 32989 ft 452 kts 133°
2026-05-07 16:33 51.42918 6.83178 33034 ft 455 kts 133°
2026-05-07 16:33 51.38660 6.90651 33043 ft 451 kts 135°
2026-05-07 16:34 51.34195 6.97690 33038 ft 451 kts 137°
2026-05-07 16:34 51.29656 7.04579 33037 ft 451 kts 137°
2026-05-07 16:35 51.25086 7.11520 33037 ft 451 kts 137°
2026-05-07 16:35 51.20548 7.18449 33032 ft 452 kts 136°
2026-05-07 16:36 51.16020 7.25378 33029 ft 453 kts 136°
2026-05-07 16:36 51.11489 7.32310 33029 ft 453 kts 136°
2026-05-07 16:37 51.06913 7.39298 33027 ft 453 kts 136°
2026-05-07 16:37 51.02370 7.46218 33025 ft 453 kts 136°
2026-05-07 16:38 50.97834 7.53110 33026 ft 453 kts 136°
2026-05-07 16:38 50.93253 7.60048 33026 ft 454 kts 136°
2026-05-07 16:39 50.88731 7.66878 33023 ft 454 kts 137°
2026-05-07 16:39 50.84131 7.73808 33025 ft 454 kts 137°
2026-05-07 16:40 50.79570 7.80637 33028 ft 453 kts 137°
2026-05-07 16:40 50.74966 7.87487 33031 ft 454 kts 137°
2026-05-07 16:41 50.70367 7.94309 33032 ft 454 kts 137°
2026-05-07 16:41 50.65742 8.01151 33038 ft 454 kts 137°
2026-05-07 16:42 50.61109 8.07877 33040 ft 454 kts 139°
2026-05-07 16:42 50.56065 8.13790 33036 ft 454 kts 146°
2026-05-07 16:43 50.50737 8.19163 33028 ft 454 kts 148°
2026-05-07 16:43 50.45402 8.24387 33032 ft 454 kts 148°
2026-05-07 16:44 50.40032 8.29663 33029 ft 454 kts 148°
2026-05-07 16:44 50.34683 8.34948 33024 ft 454 kts 148°
2026-05-07 16:45 50.29487 8.40507 33026 ft 455 kts 141°
2026-05-07 16:45 50.24875 8.47226 33016 ft 455 kts 133°
2026-05-07 16:46 50.20600 8.54455 33028 ft 455 kts 131°
2026-05-07 16:46 50.16398 8.61731 33041 ft 455 kts 131°
2026-05-07 16:47 50.12136 8.69036 33027 ft 455 kts 133°
2026-05-07 16:47 50.07875 8.76255 33041 ft 456 kts 133°
2026-05-07 16:48 50.03522 8.83383 33030 ft 454 kts 136°
2026-05-07 16:48 49.98873 8.90051 33020 ft 453 kts 139°
2026-05-07 16:49 49.94135 8.96566 33023 ft 455 kts 139°
2026-05-07 16:49 49.89394 9.03101 33019 ft 455 kts 139°
2026-05-07 16:50 49.84656 9.09678 33015 ft 455 kts 139°
2026-05-07 16:50 49.79951 9.16230 33022 ft 456 kts 138°
2026-05-07 16:51 49.75268 9.22754 33022 ft 455 kts 138°
2026-05-07 16:51 49.70554 9.29312 33014 ft 456 kts 138°
2026-05-07 16:52 49.65870 9.35815 33015 ft 457 kts 138°
2026-05-07 16:52 49.61182 9.42422 33012 ft 456 kts 135°
2026-05-07 16:53 49.56873 9.49595 33018 ft 457 kts 131°
2026-05-07 16:53 49.52705 9.57076 33016 ft 457 kts 130°
2026-05-07 16:54 49.48597 9.64448 33020 ft 456 kts 131°
2026-05-07 16:54 49.44432 9.71816 33021 ft 457 kts 132°
2026-05-07 16:55 49.40239 9.79151 33026 ft 457 kts 132°
2026-05-07 16:55 49.36025 9.86471 33029 ft 457 kts 132°
2026-05-07 16:56 49.31820 9.93730 33026 ft 457 kts 133°
2026-05-07 16:56 49.25485 10.04616 32802 ft 453 kts 132°
2026-05-07 16:57 49.23388 10.08210 32327 ft 453 kts 132°
2026-05-07 16:57 49.21289 10.11802 31621 ft 457 kts 132°
2026-05-07 16:57 49.19172 10.15421 30860 ft 459 kts 132°
2026-05-07 16:57 49.17063 10.19024 30208 ft 456 kts 132°
2026-05-07 16:58 49.14964 10.22608 29573 ft 453 kts 132°
2026-05-07 16:58 49.12847 10.26187 28913 ft 447 kts 133°
2026-05-07 16:58 49.10774 10.29593 28321 ft 436 kts 134°
2026-05-07 16:58 49.08729 10.32887 27730 ft 426 kts 134°
2026-05-07 16:59 49.06692 10.36139 27260 ft 419 kts 134°
2026-05-07 16:59 49.04684 10.39331 26982 ft 428 kts 134°
2026-05-07 16:59 49.02565 10.42696 26592 ft 448 kts 134°
2026-05-07 16:59 49.00384 10.46160 25934 ft 458 kts 134°
2026-05-07 17:00 48.98204 10.49626 25262 ft 449 kts 134°
2026-05-07 17:00 48.96072 10.53017 24576 ft 439 kts 134°
2026-05-07 17:00 48.94024 10.56275 23918 ft 430 kts 134°
2026-05-07 17:00 48.91951 10.59571 23255 ft 429 kts 134°
2026-05-07 17:01 48.89952 10.62744 22602 ft 431 kts 134°
2026-05-07 17:01 48.87824 10.66120 21891 ft 427 kts 135°
2026-05-07 17:01 48.85801 10.69329 21213 ft 418 kts 135°
2026-05-07 17:01 48.83808 10.72489 20744 ft 409 kts 135°
2026-05-07 17:02 48.81847 10.75592 20484 ft 411 kts 135°
2026-05-07 17:02 48.79831 10.78772 20249 ft 421 kts 135°
2026-05-07 17:02 48.77801 10.81963 19955 ft 420 kts 135°
2026-05-07 17:02 48.75795 10.85110 19675 ft 414 kts 135°
2026-05-07 17:03 48.73801 10.88234 19391 ft 410 kts 135°
2026-05-07 17:03 48.71826 10.91322 18856 ft 411 kts 136°
2026-05-07 17:03 48.69833 10.94434 18224 ft 409 kts 136°
2026-05-07 17:03 48.67880 10.97482 17592 ft 408 kts 136°
2026-05-07 17:04 48.65902 11.00563 16926 ft 407 kts 135°
2026-05-07 17:04 48.63961 11.03584 16253 ft 406 kts 135°
2026-05-07 17:04 48.62001 11.06631 15572 ft 405 kts 135°
2026-05-07 17:04 48.60096 11.09782 14885 ft 401 kts 130°
2026-05-07 17:05 48.58075 11.12575 14243 ft 396 kts 144°
2026-05-07 17:05 48.55868 11.14993 13595 ft 390 kts 146°
2026-05-07 17:05 48.53731 11.17431 13112 ft 376 kts 136°
2026-05-07 17:05 48.52308 11.20526 13034 ft 357 kts 112°
2026-05-07 17:06 48.51764 11.24093 13029 ft 347 kts 92°
2026-05-07 17:06 48.51934 11.27712 13038 ft 351 kts 78°
2026-05-07 17:06 48.52499 11.31318 13029 ft 353 kts 73°
2026-05-07 17:06 48.53216 11.34873 13024 ft 352 kts 71°
2026-05-07 17:07 48.53905 11.38387 13024 ft 353 kts 73°
2026-05-07 17:07 48.54525 11.41992 12994 ft 351 kts 75°
2026-05-07 17:07 48.55065 11.45510 12640 ft 349 kts 76°
2026-05-07 17:07 48.55585 11.49129 12015 ft 352 kts 77°
2026-05-07 17:08 48.56080 11.52678 11435 ft 347 kts 77°
2026-05-07 17:08 48.56571 11.56235 10901 ft 339 kts 77°
2026-05-07 17:08 48.57044 11.59651 10478 ft 329 kts 77°
2026-05-07 17:08 48.57496 11.62995 10009 ft 321 kts 77°
2026-05-07 17:09 48.57791 11.66259 9637 ft 312 kts 93°
2026-05-07 17:09 48.57251 11.69293 9535 ft 290 kts 119°
2026-05-07 17:09 48.56425 11.71973 9286 ft 281 kts 106°
2026-05-07 17:09 48.56286 11.74940 9031 ft 289 kts 79°
2026-05-07 17:10 48.57029 11.77699 8843 ft 285 kts 51°
2026-05-07 17:10 48.58443 11.79653 8682 ft 276 kts 29°
2026-05-07 17:10 48.60144 11.81101 8304 ft 281 kts 24°
2026-05-07 17:10 48.61889 11.82432 7925 ft 280 kts 24°
2026-05-07 17:11 48.63632 11.83733 7544 ft 279 kts 24°
2026-05-07 17:11 48.65356 11.85007 7176 ft 279 kts 23°
2026-05-07 17:11 48.67104 11.86295 6799 ft 278 kts 24°
2026-05-07 17:11 48.68671 11.87974 6403 ft 282 kts 49°
2026-05-07 17:12 48.69481 11.90613 6035 ft 283 kts 82°
2026-05-07 17:12 48.69256 11.93545 5680 ft 281 kts 109°
2026-05-07 17:12 48.68500 11.96247 5304 ft 280 kts 115°
2026-05-07 17:12 48.67659 11.98877 5034 ft 275 kts 116°
2026-05-07 17:13 48.66828 12.01426 4934 ft 265 kts 116°
2026-05-07 17:13 48.66016 12.03909 4933 ft 264 kts 116°
2026-05-07 17:13 48.65193 12.06420 4932 ft 267 kts 116°
2026-05-07 17:13 48.64367 12.08940 4923 ft 268 kts 116°
2026-05-07 17:14 48.63548 12.11434 4922 ft 266 kts 117°
2026-05-07 17:14 48.62421 12.13654 4914 ft 266 kts 145°
2026-05-07 17:14 48.60734 12.14638 4941 ft 262 kts 178°
2026-05-07 17:14 48.58894 12.14467 4932 ft 260 kts 191°
2026-05-07 17:15 48.57160 12.14013 4894 ft 244 kts 192°
2026-05-07 17:15 48.55557 12.13584 4942 ft 225 kts 192°
2026-05-07 17:15 48.54053 12.13194 4914 ft 212 kts 192°
2026-05-07 17:15 48.52655 12.12836 4910 ft 198 kts 192°
2026-05-07 17:16 48.51338 12.12504 4915 ft 188 kts 192°
2026-05-07 17:16 48.50046 12.12182 4963 ft 188 kts 192°
2026-05-07 17:16 48.48748 12.11856 4958 ft 184 kts 194°
2026-05-07 17:16 48.47576 12.11442 4965 ft 161 kts 198°
2026-05-07 17:17 48.46538 12.11030 4890 ft 153 kts 198°
2026-05-07 17:17 48.45492 12.10619 4941 ft 157 kts 198°
2026-05-07 17:17 48.44423 12.10194 4926 ft 159 kts 198°
2026-05-07 17:17 48.43364 12.09778 4923 ft 157 kts 198°
2026-05-07 17:18 48.42305 12.09325 4929 ft 157 kts 201°
2026-05-07 17:18 48.41270 12.08826 4927 ft 157 kts 201°
2026-05-07 17:18 48.40234 12.08311 4927 ft 156 kts 203°
2026-05-07 17:18 48.39234 12.07658 4926 ft 155 kts 213°
2026-05-07 17:19 48.38372 12.06735 4930 ft 153 kts 224°
2026-05-07 17:19 48.37639 12.05587 4926 ft 151 kts 236°
2026-05-07 17:19 48.37091 12.04254 4925 ft 151 kts 246°
2026-05-07 17:19 48.36694 12.02751 4618 ft 157 kts 255°
2026-05-07 17:20 48.36419 12.01202 4243 ft 153 kts 258°
2026-05-07 17:20 48.36138 11.99663 3837 ft 152 kts 257°
2026-05-07 17:20 48.35870 11.98152 3456 ft 147 kts 258°
2026-05-07 17:20 48.35654 11.96664 3144 ft 145 kts 264°
2026-05-07 17:21 48.35520 11.95160 2981 ft 146 kts 266°
2026-05-07 17:21 48.35427 11.93634 2897 ft 148 kts 269°
2026-05-07 17:21 48.35370 11.92096 2838 ft 147 kts 268°
2026-05-07 17:21 48.35288 11.90543 2730 ft 150 kts 266°
2026-05-07 17:22 48.35161 11.88985 2596 ft 150 kts 264°
2026-05-07 17:22 48.35001 11.87425 2364 ft 151 kts 265°
2026-05-07 17:22 48.34889 11.85885 2133 ft 145 kts 266°
2026-05-07 17:22 48.34786 11.84387 1953 ft 144 kts 264°
2026-05-07 17:23 48.34658 11.82828 1816 ft 153 kts 266°
2026-05-07 17:23 48.34544 11.81221 1661 ft 154 kts 265°
2026-05-07 17:23 48.34420 11.79700 1480 ft 140 kts 265°
2026-05-07 17:23 48.34332 11.78521 1481 ft 81 kts 263°
2026-05-07 17:24 48.34328 11.77965 1483 ft 40 kts 287°
2026-05-07 17:24 48.34409 11.77667 1484 ft 17 kts 293°
2026-05-07 17:24 48.34449 11.77530 1484 ft 9 kts 294°
2026-05-07 17:24 48.34485 11.77467 1484 ft 7 kts 334°
2026-05-07 17:25 48.34555 11.77435 1484 ft 13 kts 355°
2026-05-07 17:25 48.34601 11.77431 1484 ft 3 kts 15°
2026-05-07 17:25 48.34637 11.77535 1483 ft 21 kts 81°
2026-05-07 17:25 48.34652 11.77738 1483 ft 16 kts 83°
2026-05-07 17:26 48.34670 11.77867 1482 ft 9 kts 53°
2026-05-07 17:26 48.34730 11.77889 1482 ft 8 kts 356°
2026-05-07 17:26 48.34790 11.77879 1481 ft 8 kts 353°
2026-05-07 17:26 48.34830 11.77872 1481 ft 0 kts 353°
2026-05-07 17:27 48.34836 11.77871 1481 ft 0 kts 353°
2026-05-07 17:27 48.34837 11.77871 1481 ft 0 kts 353°
2026-05-07 17:28 48.34838 11.77871 1481 ft 1 kts 353°
2026-05-07 17:28 48.34914 11.77858 1481 ft 18 kts 354°
2026-05-07 17:28 48.35055 11.77834 1481 ft 27 kts 353°
2026-05-07 17:28 48.35184 11.77897 1480 ft 16 kts 79°
2026-05-07 17:29 48.35197 11.78054 1480 ft 14 kts 84°
2026-05-07 17:29 48.35234 11.78170 1480 ft 4 kts 21°
2026-05-07 17:29 48.35255 11.78174 1480 ft 3 kts 359°
2026-05-07 17:29 48.35298 11.78167 1480 ft 11 kts 354°
2026-05-07 17:30 48.35368 11.78207 1480 ft 11 kts 88°
2026-05-07 17:30 48.35375 11.78299 1480 ft 3 kts 84°
2026-05-07 17:30 48.35376 11.78308 1480 ft 0 kts 84°